Millville, NJ

5:45 PM EDT on August 23, 2017 (GMT -0400)
Millville Municipal

Weather History for KMIV - April, 2013

Change the Weather History Date:

Wednesday, April 10, 2013

  Actual Average Record
Temperature  
Mean Temperature 75 °F -  
Max Temperature 88 °F 60 °F 88 °F (2013)
Min Temperature 62 °F 38 °F 23 °F (2007)
Cooling Degree Days 10    
Growing Degree Days 25 (Base 50)    
Moisture  
Dew Point 53 °F    
Average Humidity 52    
Maximum Humidity 80    
Minimum Humidity 31    
Precipitation  
Precipitation 0.08 in - - ()
Sea Level Pressure  
Sea Level Pressure 29.88 in    
Wind  
Wind Speed 6 mph (WSW)    
Max Wind Speed 15 mph    
Max Gust Speed 22 mph    
Visibility 10 miles    
Events Rain , Thunderstorm    
Averages and records for this station are not official NWS values.
T = Trace of Precipitation, MM = Missing Value Source: NWS Daily Summary

Daily Weather History Graph

Daily Weather History Graph

Search for Another Location

Airport or City:

Trip Planner

Search our weather history database for the weather conditions in past years. The results will help you decide how hot, cold, wet, or windy it might be!

Date:

Astronomy

Apr. 10, 2013 Rise Set
Actual Time 6:30 AM EDT 7:33 PM EDT
Civil Twilight 6:02 AM EDT 8:00 PM EDT
Nautical Twilight 5:30 AM EDT 8:33 PM EDT
Astronomical Twilight 4:56 AM EDT 9:07 PM EDT
Moon 6:25 AM EDT (4/10) 8:06 PM EDT (4/10)
Length of Visible Light 13h 57m
Length of Day
13h 02m
New Moon, 0% of the Moon is Illuminated
Apr 10
New Moon
Apr 18
First Quarter
Apr 25
Full
May 2
Last Quarter
May 9
New

Hourly Weather History & Observations

Time (EDT) Temp. Heat Index Dew Point Humidity Pressure Visibility Wind Dir Wind Speed Gust Speed Precip Events Conditions
12:54 AM 64.9 °F - 52.0 °F 63% 29.93 in 10.0 mi Variable 3.5 mph - N/A   Clear
1:54 AM 64.0 °F - 52.0 °F 65% 29.90 in 10.0 mi SSW 4.6 mph - N/A   Clear
2:54 AM 64.9 °F - 53.1 °F 65% 29.88 in 10.0 mi SW 5.8 mph - N/A   Clear
3:54 AM 66.9 °F - 53.1 °F 61% 29.88 in 10.0 mi WSW 6.9 mph - N/A   Clear
4:54 AM 64.9 °F - 53.1 °F 65% 29.90 in 10.0 mi West 6.9 mph - N/A   Clear
5:54 AM 62.1 °F - 52.0 °F 70% 29.91 in 10.0 mi WSW 5.8 mph - N/A   Clear
6:54 AM 63.0 °F - 53.1 °F 70% 29.93 in 10.0 mi WSW 5.8 mph - N/A   Clear
7:54 AM 66.0 °F - 53.1 °F 63% 29.94 in 10.0 mi West 5.8 mph - N/A   Clear
8:54 AM 71.1 °F - 53.1 °F 53% 29.94 in 10.0 mi WSW 9.2 mph - N/A   Clear
9:54 AM 77.0 °F - 52.0 °F 42% 29.94 in 10.0 mi West 8.1 mph - N/A   Clear
10:54 AM 81.0 °F 80.5 °F 54.0 °F 39% 29.93 in 10.0 mi WSW 9.2 mph - N/A   Clear
11:54 AM 82.9 °F - 52.0 °F 34% 29.92 in 10.0 mi WSW 11.5 mph - N/A   Clear
2:54 PM 87.1 °F 85.1 °F 54.0 °F 32% 29.88 in 10.0 mi West 13.8 mph 21.9 mph N/A   Clear
3:54 PM 88.0 °F 85.9 °F 54.0 °F 31% 29.85 in 10.0 mi West 15.0 mph 21.9 mph N/A   Clear
4:54 PM 88.0 °F 85.9 °F 54.0 °F 31% 29.85 in 10.0 mi Variable 6.9 mph - N/A   Clear
5:54 PM 86.0 °F 84.0 °F 53.1 °F 32% 29.82 in 10.0 mi Variable 5.8 mph - N/A   Clear
6:54 PM 79.0 °F - 54.0 °F 42% 29.80 in 10.0 mi Calm Calm - N/A   Clear
7:54 PM 77.0 °F - 54.0 °F 45% 29.79 in 10.0 mi Variable 4.6 mph - N/A   Clear
8:54 PM 75.9 °F - 52.0 °F 43% 29.80 in 10.0 mi Variable 5.8 mph - N/A   Clear
9:54 PM 73.9 °F - 52.0 °F 46% 29.83 in 10.0 mi Calm Calm - N/A   Clear
10:54 PM 70.0 °F - 52.0 °F 53% 29.83 in 10.0 mi Calm Calm - N/A Thunderstorm Partly Cloudy
11:41 PM 64.4 °F - 57.2 °F 77% 29.92 in 9.0 mi NNE 10.4 mph - 0.08 in Rain Light Rain
11:54 PM 64.0 °F - 57.9 °F 80% 29.93 in 10.0 mi NNE 5.8 mph - 0.08 in   Overcast